LOT171 EPWA-LCLK

Flight info

Callsign LOT171
Flight time N/A
Altitude 37000
Route XIMBA DCT OMAVA DCT ROBTU DCT KENIN DCT NARKA DCT RODIP UN131 KULAR UT39 TOMBI M855 DASNI M601 BONEK
Aircraft B738/M-SDE2E3FGHIRWXY/LB1

Departure

Time N/A
Airport Warsaw Chopin Airport (EPWA)

Arrival

Time 2026-04-27 20:33
Airport Larnaca International Airport (LCLK)
Time Latitude Longitude Altitude Speed Heading
2026-04-27 19:08 41.19042 24.97331 37187 ft 472 kts 140°
2026-04-27 19:08 41.14125 25.03101 37185 ft 472 kts 140°
2026-04-27 19:09 41.09211 25.08859 37188 ft 471 kts 140°
2026-04-27 19:09 41.04303 25.14599 37190 ft 470 kts 140°
2026-04-27 19:10 40.99438 25.20278 37191 ft 469 kts 140°
2026-04-27 19:10 40.94542 25.25982 37177 ft 468 kts 141°
2026-04-27 19:11 40.89655 25.31663 37187 ft 468 kts 141°
2026-04-27 19:11 40.84767 25.37334 37187 ft 467 kts 141°
2026-04-27 19:12 40.79889 25.42986 37184 ft 467 kts 140°
2026-04-27 19:12 40.75451 25.49175 37193 ft 468 kts 131°
2026-04-27 19:13 40.71283 25.55774 37187 ft 468 kts 131°
2026-04-27 19:13 40.67072 25.62322 37181 ft 468 kts 132°
2026-04-27 19:14 40.62848 25.68779 37195 ft 468 kts 133°
2026-04-27 19:14 40.58604 25.75233 37189 ft 469 kts 133°
2026-04-27 19:15 40.54334 25.81723 37192 ft 470 kts 133°
2026-04-27 19:15 40.50075 25.88184 37191 ft 470 kts 133°
2026-04-27 19:16 40.45745 25.94687 37190 ft 470 kts 133°
2026-04-27 19:16 40.41451 26.01091 37191 ft 471 kts 133°
2026-04-27 19:17 40.37124 26.07538 37172 ft 471 kts 133°
2026-04-27 19:17 40.32797 26.13980 37182 ft 471 kts 134°
2026-04-27 19:18 40.28464 26.20417 37186 ft 471 kts 134°
2026-04-27 19:18 40.24159 26.26800 37182 ft 471 kts 134°
2026-04-27 19:19 40.19819 26.33223 37183 ft 471 kts 134°
2026-04-27 19:19 40.15479 26.39633 37186 ft 471 kts 134°
2026-04-27 19:20 40.11101 26.45839 37193 ft 469 kts 137°
2026-04-27 19:20 40.06406 26.51814 37144 ft 469 kts 139°
2026-04-27 19:21 40.01714 26.57716 37165 ft 469 kts 139°
2026-04-27 19:21 39.97048 26.63651 37165 ft 469 kts 138°
2026-04-27 19:22 39.92393 26.69596 37164 ft 468 kts 138°
2026-04-27 19:22 39.87768 26.75493 37163 ft 468 kts 138°
2026-04-27 19:23 39.83108 26.81420 37148 ft 469 kts 138°
2026-04-27 19:23 39.78442 26.87344 37147 ft 468 kts 138°
2026-04-27 19:24 39.73810 26.93150 37147 ft 468 kts 139°
2026-04-27 19:24 39.69428 26.98516 37136 ft 466 kts 139°
2026-04-27 19:25 39.64737 27.04252 37142 ft 466 kts 139°
2026-04-27 19:25 39.60017 27.10032 37130 ft 467 kts 139°
2026-04-27 19:26 39.55294 27.15813 37135 ft 467 kts 139°
2026-04-27 19:26 39.50560 27.21594 37137 ft 468 kts 139°
2026-04-27 19:27 39.46233 27.27842 37156 ft 471 kts 130°
2026-04-27 19:27 39.42181 27.34508 37147 ft 472 kts 130°
2026-04-27 19:28 39.38036 27.41079 37136 ft 471 kts 131°
2026-04-27 19:28 39.33849 27.47596 37138 ft 471 kts 131°
2026-04-27 19:29 39.29653 27.54115 37120 ft 472 kts 131°
2026-04-27 19:29 39.25489 27.60581 37111 ft 472 kts 131°
2026-04-27 19:30 39.21292 27.67089 37102 ft 472 kts 131°
2026-04-27 19:30 39.17088 27.73595 37104 ft 472 kts 131°
2026-04-27 19:31 39.12880 27.80093 37092 ft 472 kts 131°
2026-04-27 19:31 39.08703 27.86530 37089 ft 472 kts 132°
2026-04-27 19:32 39.04493 27.92999 37093 ft 471 kts 132°
2026-04-27 19:32 39.00306 27.99415 37088 ft 471 kts 132°
2026-04-27 19:33 38.96096 28.05860 37074 ft 471 kts 132°
2026-04-27 19:33 38.91910 28.12255 37077 ft 470 kts 132°
2026-04-27 19:34 38.87697 28.18678 37078 ft 470 kts 132°
2026-04-27 19:34 38.83486 28.25085 37066 ft 469 kts 132°
2026-04-27 19:35 38.79281 28.31471 37056 ft 469 kts 132°
2026-04-27 19:35 38.75100 28.37808 37058 ft 469 kts 132°
2026-04-27 19:36 38.70887 28.44180 37059 ft 468 kts 132°
2026-04-27 19:36 38.66670 28.50547 37054 ft 469 kts 132°
2026-04-27 19:37 38.62453 28.56903 37053 ft 469 kts 132°
2026-04-27 19:37 38.58170 28.63182 37040 ft 468 kts 138°
2026-04-27 19:38 38.53041 28.68090 37054 ft 464 kts 148°
2026-04-27 19:38 38.47718 28.72733 37033 ft 464 kts 148°
2026-04-27 19:39 38.42410 28.77435 37052 ft 464 kts 147°
2026-04-27 19:39 38.37168 28.82113 37037 ft 465 kts 147°
2026-04-27 19:40 38.31899 28.86815 37043 ft 465 kts 147°
2026-04-27 19:40 38.26595 28.91537 37032 ft 466 kts 147°
2026-04-27 19:41 38.21282 28.96256 37023 ft 466 kts 147°
2026-04-27 19:41 38.15971 29.00966 37034 ft 465 kts 147°
2026-04-27 19:42 38.10653 29.05672 37032 ft 466 kts 147°
2026-04-27 19:42 38.05370 29.10339 37028 ft 467 kts 147°
2026-04-27 19:43 38.00954 29.14234 37032 ft 467 kts 147°
2026-04-27 19:43 37.95615 29.18936 37026 ft 467 kts 147°
2026-04-27 19:44 37.90282 29.23622 37035 ft 466 kts 147°
2026-04-27 19:44 37.84955 29.28300 37028 ft 466 kts 147°
2026-04-27 19:45 37.79654 29.32937 37050 ft 466 kts 147°
2026-04-27 19:45 37.74315 29.37598 37055 ft 467 kts 147°
2026-04-27 19:46 37.68969 29.42259 37061 ft 467 kts 147°
2026-04-27 19:46 37.63617 29.46917 37052 ft 467 kts 147°
2026-04-27 19:47 37.58304 29.51535 37061 ft 467 kts 147°
2026-04-27 19:47 37.52955 29.56176 37058 ft 467 kts 147°
2026-04-27 19:48 37.47634 29.60784 37061 ft 466 kts 147°
2026-04-27 19:48 37.42288 29.65406 37053 ft 466 kts 147°
2026-04-27 19:49 37.36938 29.70024 37056 ft 466 kts 147°
2026-04-27 19:49 37.31634 29.74598 37052 ft 465 kts 147°
2026-04-27 19:50 37.26310 29.79197 37063 ft 464 kts 147°
2026-04-27 19:50 37.20983 29.83793 37067 ft 464 kts 147°
2026-04-27 19:51 37.15660 29.88378 37063 ft 464 kts 147°
2026-04-27 19:51 37.10365 29.92928 37057 ft 464 kts 147°
2026-04-27 19:52 37.05028 29.97485 37067 ft 464 kts 147°
2026-04-27 19:52 36.99681 30.02037 37057 ft 465 kts 147°
2026-04-27 19:53 36.91655 30.08864 37053 ft 466 kts 147°
2026-04-27 19:53 36.86332 30.13384 37051 ft 466 kts 147°
2026-04-27 19:54 36.80968 30.17932 37032 ft 466 kts 148°
2026-04-27 19:54 36.75600 30.22483 37033 ft 467 kts 148°
2026-04-27 19:55 36.70227 30.27033 37036 ft 467 kts 148°
2026-04-27 19:55 36.64886 30.31547 37021 ft 466 kts 148°
2026-04-27 19:56 36.59516 30.36079 37019 ft 467 kts 148°
2026-04-27 19:56 36.54138 30.40610 36985 ft 467 kts 148°
2026-04-27 19:57 36.48780 30.45114 37000 ft 466 kts 148°
2026-04-27 19:57 36.43429 30.49608 36995 ft 466 kts 148°
2026-04-27 19:58 36.38084 30.54087 36979 ft 466 kts 148°
2026-04-27 19:58 36.32750 30.58551 36984 ft 466 kts 148°
2026-04-27 19:59 36.27636 30.62823 36974 ft 466 kts 148°
2026-04-27 19:59 36.22299 30.67274 36986 ft 466 kts 148°
2026-04-27 20:00 36.16920 30.71753 36995 ft 466 kts 148°
2026-04-27 20:00 36.11542 30.76225 36980 ft 466 kts 148°
2026-04-27 20:01 36.06073 30.80529 36971 ft 464 kts 157°
2026-04-27 20:01 35.99959 30.82748 36975 ft 457 kts 176°
2026-04-27 20:02 35.93740 30.83790 36963 ft 461 kts 158°
2026-04-27 20:02 35.91050 30.85940 36972 ft 467 kts 137°
2026-04-27 20:02 35.89035 30.89066 37023 ft 468 kts 122°
2026-04-27 20:03 35.85703 30.95992 36992 ft 470 kts 121°
2026-04-27 20:03 35.82339 31.02932 36979 ft 472 kts 122°
2026-04-27 20:04 35.78948 31.09802 36981 ft 473 kts 122°
2026-04-27 20:04 35.76088 31.15546 36991 ft 474 kts 122°
2026-04-27 20:05 35.72045 31.23637 36997 ft 475 kts 122°
2026-04-27 20:05 35.68580 31.30562 36990 ft 475 kts 122°
2026-04-27 20:06 35.65332 31.37041 36953 ft 476 kts 122°
2026-04-27 20:06 35.63584 31.40524 36412 ft 481 kts 122°
2026-04-27 20:06 35.61836 31.44004 35879 ft 477 kts 122°
2026-04-27 20:07 35.60094 31.47469 35242 ft 477 kts 122°
2026-04-27 20:07 35.58590 31.50456 34689 ft 477 kts 122°
2026-04-27 20:07 35.56891 31.53828 34171 ft 474 kts 122°
2026-04-27 20:07 35.55163 31.57254 33659 ft 470 kts 122°
2026-04-27 20:08 35.53452 31.60644 33135 ft 465 kts 122°
2026-04-27 20:08 35.51781 31.63951 32653 ft 460 kts 122°
2026-04-27 20:08 35.50099 31.67276 32193 ft 456 kts 122°
2026-04-27 20:08 35.48436 31.70562 31712 ft 451 kts 122°
2026-04-27 20:09 35.46787 31.73815 31263 ft 447 kts 122°
2026-04-27 20:09 35.45150 31.77043 30820 ft 443 kts 122°
2026-04-27 20:09 35.43530 31.80234 30380 ft 439 kts 122°
2026-04-27 20:09 35.41923 31.83397 29912 ft 436 kts 122°
2026-04-27 20:10 35.40323 31.86541 29392 ft 432 kts 122°
2026-04-27 20:10 35.38742 31.89648 28914 ft 427 kts 122°
2026-04-27 20:10 35.37176 31.92723 28436 ft 423 kts 122°
2026-04-27 20:10 35.35626 31.95763 27990 ft 418 kts 122°
2026-04-27 20:11 35.34111 31.98733 27538 ft 415 kts 122°
2026-04-27 20:11 35.32592 32.01707 27073 ft 411 kts 122°
2026-04-27 20:11 35.31088 32.04672 26628 ft 407 kts 120°
2026-04-27 20:11 35.29874 32.07780 26164 ft 404 kts 109°
2026-04-27 20:12 35.29044 32.11045 25746 ft 400 kts 107°
2026-04-27 20:12 35.28510 32.13197 25452 ft 398 kts 107°
2026-04-27 20:12 35.27421 32.17506 24866 ft 394 kts 107°
2026-04-27 20:12 35.26601 32.20693 24434 ft 392 kts 108°
2026-04-27 20:13 35.25789 32.23818 23998 ft 389 kts 108°
2026-04-27 20:13 35.24974 32.26940 23553 ft 388 kts 108°
2026-04-27 20:13 35.24152 32.30072 23044 ft 385 kts 108°
2026-04-27 20:13 35.23337 32.33173 22585 ft 382 kts 108°
2026-04-27 20:14 35.22526 32.36255 22134 ft 379 kts 108°
2026-04-27 20:14 35.21724 32.39301 21703 ft 375 kts 108°
2026-04-27 20:14 35.20927 32.42321 21274 ft 372 kts 108°
2026-04-27 20:14 35.20135 32.45324 20855 ft 369 kts 108°
2026-04-27 20:15 35.19360 32.48253 20445 ft 366 kts 107°
2026-04-27 20:15 35.18579 32.51207 20031 ft 364 kts 107°
2026-04-27 20:15 35.17802 32.54143 19615 ft 362 kts 107°
2026-04-27 20:15 35.17029 32.57056 19212 ft 359 kts 107°
2026-04-27 20:16 35.16261 32.59951 18811 ft 358 kts 107°
2026-04-27 20:16 35.15494 32.62837 18391 ft 357 kts 107°
2026-04-27 20:16 35.14729 32.65714 17924 ft 356 kts 107°
2026-04-27 20:16 35.13967 32.68576 17495 ft 353 kts 107°
2026-04-27 20:17 35.13219 32.71384 17081 ft 351 kts 107°
2026-04-27 20:17 35.12466 32.74207 16676 ft 348 kts 107°
2026-04-27 20:17 35.11717 32.77012 16274 ft 346 kts 107°
2026-04-27 20:17 35.11225 32.78854 16011 ft 344 kts 107°
2026-04-27 20:18 35.10234 32.82555 15476 ft 341 kts 107°
2026-04-27 20:18 35.09499 32.85301 15084 ft 339 kts 106°
2026-04-27 20:18 35.08770 32.88024 14703 ft 337 kts 107°
2026-04-27 20:18 35.08041 32.90739 14318 ft 336 kts 107°
2026-04-27 20:19 35.07314 32.93441 13925 ft 334 kts 107°
2026-04-27 20:19 35.06577 32.96084 13504 ft 333 kts 108°
2026-04-27 20:19 35.05810 32.98743 13090 ft 331 kts 108°
2026-04-27 20:19 35.05046 33.01382 12692 ft 328 kts 108°
2026-04-27 20:20 35.04288 33.03999 12298 ft 325 kts 108°
2026-04-27 20:20 35.03540 33.06591 11930 ft 322 kts 108°
2026-04-27 20:20 35.02802 33.09155 11570 ft 319 kts 107°
2026-04-27 20:20 35.02070 33.11696 11204 ft 316 kts 107°
2026-04-27 20:21 35.01343 33.14216 10837 ft 314 kts 107°
2026-04-27 20:21 35.00621 33.16715 10541 ft 309 kts 107°
2026-04-27 20:21 34.99923 33.19130 10356 ft 302 kts 107°
2026-04-27 20:21 34.99236 33.21507 10222 ft 292 kts 107°
2026-04-27 20:22 34.98572 33.23806 10112 ft 283 kts 107°
2026-04-27 20:22 34.97927 33.26036 9974 ft 275 kts 107°
2026-04-27 20:22 34.97291 33.28232 9662 ft 274 kts 107°
2026-04-27 20:22 34.96660 33.30412 9371 ft 272 kts 107°
2026-04-27 20:23 34.96032 33.32580 9078 ft 270 kts 107°
2026-04-27 20:23 34.95405 33.34739 8781 ft 269 kts 107°
2026-04-27 20:23 34.94782 33.36882 8461 ft 268 kts 107°
2026-04-27 20:23 34.94168 33.38991 8177 ft 267 kts 107°
2026-04-27 20:24 34.93548 33.41118 7882 ft 266 kts 107°
2026-04-27 20:24 34.92930 33.43235 7582 ft 265 kts 107°
2026-04-27 20:24 34.92314 33.45350 7301 ft 264 kts 107°
2026-04-27 20:24 34.91700 33.47454 7013 ft 263 kts 107°
2026-04-27 20:25 34.91090 33.49543 6740 ft 262 kts 107°
2026-04-27 20:25 34.90481 33.51632 6458 ft 261 kts 107°
2026-04-27 20:25 34.89875 33.53709 6172 ft 260 kts 107°
2026-04-27 20:25 34.89277 33.55754 5875 ft 259 kts 108°
2026-04-27 20:26 34.88673 33.57820 5600 ft 258 kts 108°
2026-04-27 20:26 34.88066 33.59893 5325 ft 261 kts 108°
2026-04-27 20:26 34.87516 33.62001 5035 ft 260 kts 97°
2026-04-27 20:26 34.87741 33.64131 4747 ft 255 kts 64°
2026-04-27 20:27 34.88490 33.66068 4482 ft 253 kts 65°
2026-04-27 20:27 34.89172 33.68043 4196 ft 253 kts 66°
2026-04-27 20:27 34.89840 33.70009 4047 ft 247 kts 66°
2026-04-27 20:27 34.90489 33.71918 3917 ft 241 kts 66°
2026-04-27 20:28 34.91112 33.73749 3804 ft 234 kts 66°
2026-04-27 20:28 34.91726 33.75551 3713 ft 227 kts 66°
2026-04-27 20:28 34.92320 33.77295 3613 ft 219 kts 66°
2026-04-27 20:28 34.92753 33.78382 3557 ft 212 kts 53°
2026-04-27 20:29 34.94329 33.79492 3427 ft 192 kts
2026-04-27 20:29 34.95637 33.79386 3226 ft 187 kts 344°
2026-04-27 20:29 34.96735 33.78601 2925 ft 186 kts 314°
2026-04-27 20:29 34.97386 33.77255 2651 ft 185 kts 287°
2026-04-27 20:30 34.97454 33.75705 2318 ft 187 kts 261°
2026-04-27 20:30 34.96936 33.74277 2023 ft 188 kts 232°
2026-04-27 20:30 34.96044 33.73118 1735 ft 186 kts 232°
2026-04-27 20:30 34.95223 33.71909 1539 ft 184 kts 230°
2026-04-27 20:31 34.94344 33.70854 1490 ft 169 kts 226°
2026-04-27 20:31 34.93526 33.69882 1362 ft 163 kts 227°
2026-04-27 20:31 34.92744 33.68933 1178 ft 152 kts 227°
2026-04-27 20:31 34.92028 33.68060 1036 ft 141 kts 225°
2026-04-27 20:32 34.91333 33.67215 844 ft 139 kts 226°
2026-04-27 20:32 34.90641 33.66409 684 ft 140 kts 224°
2026-04-27 20:32 34.89963 33.65573 542 ft 141 kts 229°
2026-04-27 20:32 34.89282 33.64721 348 ft 140 kts 226°
2026-04-27 20:33 34.88596 33.63878 174 ft 140 kts 227°
2026-04-27 20:33 34.87906 33.63042 27 ft 137 kts 225°
2026-04-27 20:33 34.87333 33.62345 18 ft 89 kts 225°
2026-04-27 20:33 34.87067 33.62015 20 ft 25 kts 225°
2026-04-27 20:34 34.86996 33.61874 20 ft 19 kts 244°
2026-04-27 20:34 34.86959 33.61740 22 ft 14 kts 254°
2026-04-27 20:34 34.86935 33.61631 18 ft 13 kts 256°
2026-04-27 20:34 34.86912 33.61523 19 ft 13 kts 256°
2026-04-27 20:35 34.86884 33.61423 18 ft 13 kts 251°
2026-04-27 20:35 34.86898 33.61322 16 ft 13 kts 256°
2026-04-27 20:35 34.86843 33.61242 16 ft 12 kts 225°
2026-04-27 20:35 34.86783 33.61170 18 ft 12 kts 225°
2026-04-27 20:36 34.86725 33.61099 21 ft 12 kts 225°
2026-04-27 20:36 34.86697 33.61016 20 ft 12 kts 293°
2026-04-27 20:36 34.86751 33.60946 19 ft 2 kts 315°
2026-04-27 20:36 34.86761 33.60934 19 ft 5 kts 316°
2026-04-27 20:37 34.86795 33.60947 19 ft 6 kts 39°
2026-04-27 20:37 34.86826 33.60984 19 ft 4 kts 45°
2026-04-27 20:37 34.86831 33.60991 19 ft 0 kts 48°
2026-04-27 20:37 34.86832 33.60992 21 ft 0 kts 45°